Regional Weather Roundup
Issued by NWS Cleveland, OH

Home | Current Version | Previous Version | Text Only | Print | Product List | Glossary Off
Versions: 1 2 3 4 5 6 7 8 9 10 11 12 13 14 15 16 17 18 19 20 21 22 23 24 25 26 27 28 29 30 31 32 33 34 35 36 37 38 39 40 41 42 43 44 45 46 47 48 49 50

997
ASUS41 KCLE 211102
RWRCLE
OHIO REGIONAL WEATHER ROUNDUP
NATIONAL WEATHER SERVICE CLEVELAND, OH
600 AM EST WED FEB 21 2018

NOTE: "FAIR" INDICATES FEW OR NO CLOUDS BELOW 12,000 FEET WITH NO
SIGNIFICANT WEATHER AND/OR OBSTRUCTIONS TO VISIBILITY.

OHZ001>008-015>018-024>027-034-035-043-044-211200-
   NORTHWEST OHIO

CITY           SKY/WX    TMP DP  RH WIND       PRES   REMARKS
DEFIANCE       LGT RAIN  43  40  89 NW16      30.21R
FINDLAY        LGT RAIN  53  49  86 NW12      30.15R
TOLEDO EXPRESS LGT RAIN  46  45  96 NW13      30.18R
TOLEDO EXEC    LGT RAIN  49  47  93 NW12      30.16R
LIMA           LGT RAIN  53  53 100 NW12      30.16R
$$

OHZ009>014-019>023-028>033-038-089-211200-
   NORTHEAST OHIO

CITY           SKY/WX    TMP DP  RH WIND       PRES   REMARKS
CLE-HOPKINS    CLOUDY    64  55  72 NW22G30   30.11R
CLE-LAKEFRONT  CLOUDY    52  46  80 W16G25    30.08R
CUY CO. ARPT   NOT AVBL
LORAIN-ELYRIA  LGT RAIN  57  51  80 NW15G29   30.11R
ASHTABULA      FAIR      66  54  65 S14       30.07S
AKRON-CANTON   MOCLDY    66  52  60 S16       30.11S
WOOSTER        MOCLDY    66  54  65 SW14G24   30.10S
MANSFIELD      CLOUDY    66  56  70 S22G36    30.09R
YOUNGSTOWN     CLOUDY    65  51  60 S9        30.12R
$$

OHZ042-051>053-060>062-070>072-077>081-211200-
  SOUTHWEST OHIO

CITY           SKY/WX    TMP DP  RH WIND       PRES   REMARKS
CINC-COVINGTON LGT RAIN  58  57  97 N15G30    30.18R
CINC-LUNKEN    LGT RAIN  59  58  96 N20G39    30.19R FOG
HAMILTON       LGT RAIN  58  57  97 N10       30.19R
DAYTON         LGT RAIN  55  55 100 N9        30.18R
WRIGHT-PAT AFB NOT AVBL
DAYTON GENERAL LGT RAIN  58  53  84 N13G29    30.17R
WILMINGTON     MOCLDY    65  59  81 S18G26    30.12R
$$

OHZ036-037-039>041-045>050-054>059-063>069-073>076-082>088-211200-
  CENTRAL AND SOUTHEAST OHIO

CITY           SKY/WX    TMP DP  RH WIND       PRES   REMARKS
COLUMBUS       MOCLDY    67  56  67 S13G22    30.12R
OSU AIRPORT    MOCLDY    67  58  72 S17G25    30.10R
BOLTON FIELD   CLOUDY    66  57  73 SW17G25   30.13R
RICKENBACK AFB CLOUDY    64  55  73 S13       30.13R
NEWARK         CLOUDY    67  53  61 S10       30.12S
MARION         CLOUDY    63  55  77 NW20G30   30.12R
LANCASTER      FAIR      66  54  65 S14       30.13F
ZANESVILLE     FAIR      65  51  60 S10       30.14F
NEW PHILLY     NOT AVBL
$$




USA.gov is the U.S. government's official web portal to all federal, state and local government web resources and services.